User: anonymous   Login
Location: Mississauga
(43.5802°N, 79.6166°W)
Time: 23:50:25
(UTC-05:00)
Language:

Cosmos 1437 Rocket - Orbit

View from above orbital plane
View from above orbital plane
View from above satellite
View from above satellite

Ground track
Ground track

The orbit data is extracted from the following two-line orbital elements,

1 13771U 83003B   15028.85811206  .00002928  00000-0  18918-3 0  2343
2 13771 081.1589 285.3673 0030490 007.0014 353.1629 15.07561913742533
Epoch (UTC): 28 January 2015 20:35:40
Eccentricity: 0.0030490
inclination: 81.1589°
perigee height: 522 km
apogee height: 565 km
right ascension of ascending node: 285.3673°
argument of perigee: 7.0014°
revolutions per day: 15.07561913
mean anomaly at epoch: 353.1629°
orbit number at epoch: 74253

The dashed part of the orbit path shows where the satellite is in the earth's shadow,  

DLR